Time,TemperatureF,DewpointF,PressureIn,WindDirection,WindDirectionDegrees,WindSpeedMPH,WindSpeedGustMPH,Humidity,HourlyPrecipIn,Conditions,Clouds,dailyrainin,SoftwareType,DateUTC
2013-01-26 00:03:00,14.0,9.0,29.99,West,279,0.0,0.0,80,0.00,,,0.00,,2013-01-26 05:03:00,
2013-01-26 00:12:00,14.0,9.0,29.99,West,279,0.0,0.0,80,0.00,,,0.00,,2013-01-26 05:12:00,
2013-01-26 00:23:00,14.0,9.0,29.99,West,279,0.0,1.0,80,0.00,,,0.00,,2013-01-26 05:23:00,
2013-01-26 00:33:00,14.0,9.0,29.99,West,279,0.0,0.0,80,0.00,,,0.00,,2013-01-26 05:33:00,
2013-01-26 00:42:00,14.0,9.0,29.99,West,279,0.0,0.0,80,0.00,,,0.00,,2013-01-26 05:42:00,
2013-01-26 00:52:00,14.0,9.0,29.98,West,279,0.0,0.0,80,0.00,,,0.00,,2013-01-26 05:52:00,
2013-01-26 01:02:00,14.0,9.0,29.99,West,279,0.0,0.0,80,0.00,,,0.00,,2013-01-26 06:02:00,
2013-01-26 01:12:00,14.0,9.0,29.99,West,279,0.0,0.0,80,0.00,,,0.00,,2013-01-26 06:12:00,
2013-01-26 01:21:00,13.0,8.0,29.99,West,279,0.0,0.0,80,0.00,,,0.00,,2013-01-26 06:21:00,
2013-01-26 01:32:00,13.0,8.0,29.99,West,279,0.0,0.0,80,0.00,,,0.00,,2013-01-26 06:32:00,
2013-01-26 01:42:00,13.0,8.0,29.99,West,279,0.0,0.0,80,0.00,,,0.00,,2013-01-26 06:42:00,
2013-01-26 01:52:00,13.0,8.0,29.98,West,279,0.0,0.0,81,0.00,,,0.00,,2013-01-26 06:52:00,
2013-01-26 02:02:00,13.0,8.0,29.98,West,279,0.0,0.0,81,0.00,,,0.00,,2013-01-26 07:02:00,
2013-01-26 02:12:00,13.0,8.0,29.98,West,279,0.0,0.0,81,0.00,,,0.00,,2013-01-26 07:12:00,
2013-01-26 02:21:00,13.0,8.0,29.98,West,279,0.0,0.0,81,0.00,,,0.00,,2013-01-26 07:21:00,
2013-01-26 02:33:00,13.0,8.0,29.98,West,279,0.0,0.0,80,0.00,,,0.00,,2013-01-26 07:33:00,
2013-01-26 02:42:00,13.0,8.0,29.98,West,279,0.0,0.0,80,0.00,,,0.00,,2013-01-26 07:42:00,
2013-01-26 02:51:00,12.0,7.0,29.98,West,279,0.0,0.0,81,0.00,,,0.00,,2013-01-26 07:51:00,
2013-01-26 03:02:00,12.0,7.0,29.97,West,278,0.0,1.0,80,0.00,,,0.00,,2013-01-26 08:02:00,
2013-01-26 03:11:00,12.0,7.0,29.97,West,278,0.0,1.0,80,0.00,,,0.00,,2013-01-26 08:11:00,
2013-01-26 03:21:00,12.0,7.0,29.97,West,278,0.0,2.0,81,0.00,,,0.00,,2013-01-26 08:21:00,
2013-01-26 03:32:00,12.0,7.0,29.97,West,279,0.0,0.0,81,0.00,,,0.00,,2013-01-26 08:32:00,
2013-01-26 03:42:00,12.0,7.0,29.97,West,279,0.0,0.0,81,0.00,,,0.00,,2013-01-26 08:42:00,
2013-01-26 03:53:00,12.0,7.0,29.97,West,279,0.0,1.0,81,0.00,,,0.00,,2013-01-26 08:53:00,
2013-01-26 04:02:00,12.0,7.0,29.97,West,279,0.0,0.0,81,0.00,,,0.00,,2013-01-26 09:02:00,
2013-01-26 04:11:00,12.0,7.0,29.97,West,279,0.0,0.0,81,0.00,,,0.00,,2013-01-26 09:11:00,
2013-01-26 04:22:00,12.0,7.0,29.97,West,279,0.0,0.0,81,0.00,,,0.00,,2013-01-26 09:22:00,
2013-01-26 04:32:00,12.0,7.0,29.98,West,279,0.0,0.0,80,0.00,,,0.00,,2013-01-26 09:32:00,
2013-01-26 04:42:00,12.0,7.0,29.98,West,279,0.0,0.0,80,0.00,,,0.00,,2013-01-26 09:42:00,
2013-01-26 04:51:00,12.0,7.0,29.97,West,279,0.0,0.0,80,0.00,,,0.00,,2013-01-26 09:51:00,
2013-01-26 05:01:00,11.0,6.0,29.98,West,279,0.0,0.0,80,0.00,,,0.00,,2013-01-26 10:01:00,
2013-01-26 05:12:00,11.0,6.0,29.98,West,279,0.0,0.0,80,0.00,,,0.00,,2013-01-26 10:12:00,
2013-01-26 05:21:00,11.0,6.0,29.98,West,279,0.0,0.0,80,0.00,,,0.00,,2013-01-26 10:21:00,
2013-01-26 05:32:00,11.0,6.0,29.98,West,278,0.0,1.0,80,0.00,,,0.00,,2013-01-26 10:32:00,
2013-01-26 05:42:00,11.0,6.0,29.98,West,278,0.0,1.0,80,0.00,,,0.00,,2013-01-26 10:42:00,
2013-01-26 05:52:00,11.0,6.0,29.99,West,279,0.0,0.0,80,0.00,,,0.00,,2013-01-26 10:52:00,
2013-01-26 06:01:00,11.0,6.0,29.99,West,279,0.0,0.0,80,0.00,,,0.00,,2013-01-26 11:01:00,
2013-01-26 06:12:00,11.0,6.0,29.99,West,279,0.0,0.0,80,0.00,,,0.00,,2013-01-26 11:12:00,
2013-01-26 06:22:00,11.0,6.0,30.00,West,278,0.0,1.0,80,0.00,,,0.00,,2013-01-26 11:22:00,
2013-01-26 06:32:00,11.0,6.0,30.00,West,279,0.0,1.0,80,0.00,,,0.00,,2013-01-26 11:32:00,
2013-01-26 06:42:00,11.0,6.0,30.00,West,279,0.0,1.0,80,0.00,,,0.00,,2013-01-26 11:42:00,
2013-01-26 06:52:00,11.0,6.0,30.01,West,279,0.0,1.0,81,0.00,,,0.00,,2013-01-26 11:52:00,
2013-01-26 07:02:00,11.0,6.0,30.02,West,279,0.0,0.0,81,0.00,,,0.00,,2013-01-26 12:02:00,
2013-01-26 07:12:00,11.0,6.0,30.02,West,279,0.0,0.0,81,0.00,,,0.00,,2013-01-26 12:12:00,
2013-01-26 07:23:00,11.0,6.0,30.02,West,279,0.0,0.0,81,0.00,,,0.00,,2013-01-26 12:23:00,
2013-01-26 07:33:00,10.0,5.0,30.03,NE,35,0.0,0.0,81,0.00,,,0.00,,2013-01-26 12:33:00,
2013-01-26 07:42:00,10.0,5.0,30.03,NE,35,0.0,0.0,81,0.00,,,0.00,,2013-01-26 12:42:00,
2013-01-26 07:52:00,10.0,5.0,30.03,NE,40,0.0,2.0,81,0.00,,,0.00,,2013-01-26 12:52:00,
2013-01-26 08:04:00,10.0,5.0,30.05,NE,36,0.0,0.0,81,0.00,,,0.00,,2013-01-26 13:04:00,
2013-01-26 08:12:00,10.0,5.0,30.05,NE,36,0.0,0.0,81,0.00,,,0.00,,2013-01-26 13:12:00,
2013-01-26 08:22:00,11.0,6.0,30.05,NE,36,0.0,1.0,81,0.00,,,0.00,,2013-01-26 13:22:00,
2013-01-26 08:33:00,14.0,9.0,30.06,North,11,0.0,1.0,79,0.00,,,0.00,,2013-01-26 13:33:00,
2013-01-26 08:42:00,14.0,9.0,30.06,North,11,0.0,1.0,79,0.00,,,0.00,,2013-01-26 13:42:00,
2013-01-26 08:52:00,14.0,8.0,30.06,SE,132,0.0,2.0,78,0.00,,,0.00,,2013-01-26 13:52:00,
2013-01-26 09:03:00,15.0,9.0,30.06,NNE,12,1.0,2.0,75,0.00,,,0.00,,2013-01-26 14:03:00,
2013-01-26 09:12:00,15.0,9.0,30.06,NNE,12,1.0,2.0,75,0.00,,,0.00,,2013-01-26 14:12:00,
2013-01-26 09:22:00,16.0,9.0,30.06,North,351,1.0,4.0,74,0.00,,,0.00,,2013-01-26 14:22:00,
2013-01-26 09:32:00,16.0,8.0,30.07,NE,40,0.0,2.0,71,0.00,,,0.00,,2013-01-26 14:32:00,
2013-01-26 09:43:00,16.0,8.0,30.07,NE,40,0.0,2.0,71,0.00,,,0.00,,2013-01-26 14:43:00,
2013-01-26 09:52:00,16.0,7.0,30.07,NW,308,0.0,4.0,68,0.00,,,0.00,,2013-01-26 14:52:00,
2013-01-26 10:03:00,16.0,7.0,30.07,NE,39,1.0,3.0,67,0.00,,,0.00,,2013-01-26 15:03:00,
2013-01-26 10:12:00,16.0,7.0,30.07,NE,39,1.0,3.0,67,0.00,,,0.00,,2013-01-26 15:12:00,
2013-01-26 10:22:00,16.0,7.0,30.09,West,279,1.0,3.0,67,0.00,,,0.00,,2013-01-26 15:22:00,
2013-01-26 10:32:00,17.0,8.0,30.09,NE,35,2.0,4.0,68,0.00,,,0.00,,2013-01-26 15:32:00,
2013-01-26 10:43:00,17.0,8.0,30.09,NE,35,2.0,4.0,68,0.00,,,0.00,,2013-01-26 15:43:00,
2013-01-26 10:53:00,18.0,9.0,30.09,WNW,291,1.0,6.0,66,0.00,,,0.00,,2013-01-26 15:53:00,
2013-01-26 11:02:00,19.0,9.0,30.09,WNW,293,1.0,4.0,65,0.00,,,0.00,,2013-01-26 16:02:00,
2013-01-26 11:12:00,20.0,10.0,30.09,NNW,343,1.0,7.0,64,0.00,,,0.00,,2013-01-26 16:12:00,
2013-01-26 11:22:00,20.0,10.0,30.09,NNW,343,1.0,7.0,64,0.00,,,0.00,,2013-01-26 16:22:00,
2013-01-26 11:33:00,21.0,10.0,30.08,NNE,27,1.0,4.0,62,0.00,,,0.00,,2013-01-26 16:33:00,
2013-01-26 11:42:00,21.0,10.0,30.08,NNE,27,1.0,4.0,62,0.00,,,0.00,,2013-01-26 16:42:00,
2013-01-26 11:53:00,21.0,10.0,30.08,NNE,27,2.0,5.0,62,0.00,,,0.00,,2013-01-26 16:53:00,
2013-01-26 12:03:00,21.0,9.0,30.08,North,354,0.0,10.0,58,0.00,,,0.00,,2013-01-26 17:03:00,
2013-01-26 12:13:00,21.0,9.0,30.08,North,354,0.0,10.0,58,0.00,,,0.00,,2013-01-26 17:13:00,
2013-01-26 12:22:00,21.0,8.0,30.08,NNE,12,1.0,6.0,56,0.00,,,0.00,,2013-01-26 17:22:00,
2013-01-26 12:33:00,21.0,7.0,30.08,ENE,67,1.0,7.0,54,0.00,,,0.00,,2013-01-26 17:33:00,
2013-01-26 12:42:00,21.0,7.0,30.08,ENE,67,1.0,7.0,54,0.00,,,0.00,,2013-01-26 17:42:00,
2013-01-26 12:52:00,22.0,8.0,30.07,NW,313,1.0,6.0,55,0.00,,,0.00,,2013-01-26 17:52:00,
2013-01-26 13:03:00,23.0,8.0,30.06,WNW,300,2.0,7.0,53,0.00,,,0.00,,2013-01-26 18:03:00,
2013-01-26 13:12:00,23.0,8.0,30.06,WNW,300,2.0,7.0,53,0.00,,,0.00,,2013-01-26 18:12:00,
2013-01-26 13:22:00,23.0,8.0,30.06,WNW,300,2.0,7.0,53,0.00,,,0.00,,2013-01-26 18:22:00,
2013-01-26 13:33:00,23.0,8.0,30.05,NE,36,4.0,7.0,52,0.00,,,0.00,,2013-01-26 18:33:00,
2013-01-26 13:42:00,23.0,8.0,30.05,NE,36,4.0,7.0,52,0.00,,,0.00,,2013-01-26 18:42:00,
2013-01-26 13:52:00,23.0,7.0,30.05,North,10,2.0,9.0,49,0.00,,,0.00,,2013-01-26 18:52:00,
2013-01-26 14:03:00,24.0,7.0,30.06,NNW,338,2.0,7.0,47,0.00,,,0.00,,2013-01-26 19:03:00,
2013-01-26 14:12:00,24.0,7.0,30.06,NNW,338,2.0,7.0,47,0.00,,,0.00,,2013-01-26 19:12:00,
2013-01-26 14:22:00,24.0,8.0,30.06,West,272,3.0,10.0,49,0.00,,,0.00,,2013-01-26 19:22:00,
2013-01-26 14:32:00,24.0,6.0,30.06,NE,34,1.0,8.0,46,0.00,,,0.00,,2013-01-26 19:32:00,
2013-01-26 14:42:00,24.0,6.0,30.06,NE,34,1.0,8.0,46,0.00,,,0.00,,2013-01-26 19:42:00,
2013-01-26 14:52:00,25.0,7.0,30.06,NNE,31,2.0,6.0,45,0.00,,,0.00,,2013-01-26 19:52:00,
2013-01-26 15:02:00,25.0,6.0,30.06,NNE,19,1.0,7.0,44,0.00,,,0.00,,2013-01-26 20:02:00,
2013-01-26 15:11:00,25.0,6.0,30.06,NNE,19,1.0,7.0,44,0.00,,,0.00,,2013-01-26 20:11:00,
2013-01-26 15:22:00,25.0,7.0,30.06,West,273,2.0,7.0,46,0.00,,,0.00,,2013-01-26 20:22:00,
2013-01-26 15:32:00,25.0,7.0,30.07,NNE,26,0.0,4.0,45,0.00,,,0.00,,2013-01-26 20:32:00,
2013-01-26 15:42:00,25.0,7.0,30.07,NNE,26,0.0,4.0,45,0.00,,,0.00,,2013-01-26 20:42:00,
2013-01-26 15:52:00,25.0,6.0,30.08,North,10,1.0,8.0,44,0.00,,,0.00,,2013-01-26 20:52:00,
2013-01-26 16:02:00,25.0,7.0,30.08,NNE,12,3.0,7.0,45,0.00,,,0.00,,2013-01-26 21:02:00,
2013-01-26 16:12:00,25.0,7.0,30.08,NNE,12,3.0,7.0,45,0.00,,,0.00,,2013-01-26 21:12:00,
2013-01-26 16:22:00,25.0,6.0,30.08,NW,305,2.0,7.0,44,0.00,,,0.00,,2013-01-26 21:22:00,
2013-01-26 16:32:00,25.0,6.0,30.08,North,10,2.0,5.0,44,0.00,,,0.00,,2013-01-26 21:32:00,
2013-01-26 16:42:00,25.0,6.0,30.08,North,10,2.0,5.0,44,0.00,,,0.00,,2013-01-26 21:42:00,
2013-01-26 16:52:00,24.0,5.0,30.09,NNW,346,2.0,5.0,44,0.00,,,0.00,,2013-01-26 21:52:00,
2013-01-26 17:02:00,24.0,5.0,30.10,NW,306,1.0,8.0,44,0.00,,,0.00,,2013-01-26 22:02:00,
2013-01-26 17:12:00,24.0,5.0,30.10,NW,306,1.0,8.0,44,0.00,,,0.00,,2013-01-26 22:12:00,
2013-01-26 17:22:00,23.0,5.0,30.11,NNW,329,1.0,5.0,45,0.00,,,0.00,,2013-01-26 22:22:00,
2013-01-26 17:32:00,22.0,4.0,30.12,NNW,342,2.0,7.0,46,0.00,,,0.00,,2013-01-26 22:32:00,
2013-01-26 17:42:00,22.0,4.0,30.12,NNW,342,2.0,7.0,46,0.00,,,0.00,,2013-01-26 22:42:00,
2013-01-26 17:52:00,21.0,4.0,30.14,NNW,339,1.0,4.0,46,0.00,,,0.00,,2013-01-26 22:52:00,
2013-01-26 18:01:00,21.0,4.0,30.15,North,355,0.0,2.0,46,0.00,,,0.00,,2013-01-26 23:01:00,
2013-01-26 18:12:00,21.0,4.0,30.15,North,355,0.0,2.0,46,0.00,,,0.00,,2013-01-26 23:12:00,
2013-01-26 18:22:00,21.0,4.0,30.15,NNE,12,1.0,4.0,47,0.00,,,0.00,,2013-01-26 23:22:00,
2013-01-26 18:32:00,20.0,3.0,30.16,West,280,0.0,6.0,47,0.00,,,0.00,,2013-01-26 23:32:00,
2013-01-26 18:42:00,20.0,3.0,30.16,West,280,0.0,6.0,47,0.00,,,0.00,,2013-01-26 23:42:00,
2013-01-26 18:52:00,20.0,4.0,30.18,NW,311,0.0,6.0,48,0.00,,,0.00,,2013-01-26 23:52:00,
2013-01-26 19:02:00,20.0,4.0,30.17,NNE,15,1.0,9.0,49,0.00,,,0.00,,2013-01-27 00:02:00,
2013-01-26 19:12:00,20.0,4.0,30.17,NNE,15,1.0,9.0,49,0.00,,,0.00,,2013-01-27 00:12:00,
2013-01-26 19:21:00,19.0,3.0,30.18,NE,51,1.0,7.0,49,0.00,,,0.00,,2013-01-27 00:21:00,
2013-01-26 19:32:00,19.0,3.0,30.18,NW,304,0.0,4.0,49,0.00,,,0.00,,2013-01-27 00:32:00,
2013-01-26 19:42:00,19.0,3.0,30.18,NW,304,0.0,4.0,49,0.00,,,0.00,,2013-01-27 00:42:00,
2013-01-26 19:51:00,19.0,3.0,30.19,West,275,1.0,3.0,49,0.00,,,0.00,,2013-01-27 00:51:00,
2013-01-26 20:01:00,19.0,3.0,30.20,NNW,341,0.0,2.0,50,0.00,,,0.00,,2013-01-27 01:01:00,
2013-01-26 20:11:00,19.0,3.0,30.20,NNW,341,0.0,2.0,50,0.00,,,0.00,,2013-01-27 01:11:00,
2013-01-26 20:22:00,19.0,3.0,30.20,NW,317,0.0,2.0,50,0.00,,,0.00,,2013-01-27 01:22:00,
2013-01-26 20:32:00,18.0,3.0,30.20,WNW,297,1.0,5.0,50,0.00,,,0.00,,2013-01-27 01:32:00,
2013-01-26 20:42:00,18.0,3.0,30.20,WNW,297,1.0,5.0,50,0.00,,,0.00,,2013-01-27 01:42:00,
2013-01-26 20:52:00,18.0,3.0,30.21,West,275,0.0,1.0,50,0.00,,,0.00,,2013-01-27 01:52:00,
2013-01-26 21:01:00,18.0,3.0,30.22,North,351,0.0,2.0,51,0.00,,,0.00,,2013-01-27 02:01:00,
2013-01-26 21:12:00,18.0,3.0,30.22,North,351,0.0,2.0,51,0.00,,,0.00,,2013-01-27 02:12:00,
2013-01-26 21:22:00,18.0,3.0,30.22,ESE,107,0.0,2.0,52,0.00,,,0.00,,2013-01-27 02:22:00,
2013-01-26 21:32:00,17.0,3.0,30.23,SSE,154,0.0,1.0,53,0.00,,,0.00,,2013-01-27 02:32:00,
2013-01-26 21:42:00,17.0,3.0,30.23,SSE,154,0.0,1.0,53,0.00,,,0.00,,2013-01-27 02:42:00,
2013-01-26 21:52:00,17.0,3.0,30.24,SSE,154,0.0,0.0,53,0.00,,,0.00,,2013-01-27 02:52:00,
2013-01-26 22:02:00,17.0,3.0,30.24,West,279,0.0,1.0,54,0.00,,,0.00,,2013-01-27 03:02:00,
2013-01-26 22:11:00,17.0,3.0,30.24,West,279,0.0,1.0,54,0.00,,,0.00,,2013-01-27 03:11:00,
2013-01-26 22:21:00,16.0,3.0,30.25,ENE,64,0.0,1.0,55,0.00,,,0.00,,2013-01-27 03:21:00,
2013-01-26 22:32:00,16.0,3.0,30.25,East,96,0.0,4.0,55,0.00,,,0.00,,2013-01-27 03:32:00,
2013-01-26 22:42:00,16.0,3.0,30.25,East,96,0.0,4.0,55,0.00,,,0.00,,2013-01-27 03:42:00,
2013-01-26 22:51:00,16.0,3.0,30.26,WNW,294,0.0,2.0,56,0.00,,,0.00,,2013-01-27 03:51:00,
2013-01-26 23:02:00,16.0,3.0,30.26,West,275,0.0,5.0,57,0.00,,,0.00,,2013-01-27 04:02:00,
2013-01-26 23:12:00,16.0,3.0,30.26,West,275,0.0,5.0,57,0.00,,,0.00,,2013-01-27 04:12:00,
2013-01-26 23:21:00,16.0,4.0,30.27,WNW,295,0.0,4.0,58,0.00,,,0.00,,2013-01-27 04:21:00,
2013-01-26 23:32:00,15.0,3.0,30.27,WNW,289,0.0,4.0,58,0.00,,,0.00,,2013-01-27 04:32:00,
2013-01-26 23:42:00,15.0,3.0,30.27,WNW,289,0.0,4.0,58,0.00,,,0.00,,2013-01-27 04:42:00,
2013-01-26 23:51:00,15.0,3.0,30.28,WNW,289,0.0,0.0,59,0.00,,,0.00,,2013-01-27 04:51:00,